SCP
0 0 0 0 0 0 0 0 0 1 2 3 3 3 5 6 7 8 9 10 10 11 12 12 11 9 8 8 7 7 7 7 7 7 8 7 6 6 7 8 9 9 10 11
0 0 0 0 0 0 0 0 1 1 2 3 3 3 4 6 7 8 8 10 12 14 15 14 12 9 8 8 8 7 7 6 7 8 8 7 6 7 7 8 9 9 10 10
0 0 0 0 0 0 0 0 0 1 2 2 2 3 4 5 6 6 7 8 12 15 15 13 11 8 7 8 8 8 8 6 6 7 7 6 6 7 7 8 9 9 9 8
0 0 0 0 0 0 0 0 0 1 1 1 1 2 3 4 4 5 5 6 9 11 10 8 8 7 7 7 8 8 8 6 5 6 6 6 6 7 8 9 9 8 8 8
0 0 0 0 0 0 0 0 0 0 0 0 1 1 2 3 3 4 4 5 7 7 6 6 6 7 7 7 7 6 6 5 4 5 6 7 7 8 8 8 7 7 7 6
0 0 0 0 0 0 0 0 0 0 0 0 0 1 2 3 4 5 6 6 6 6 5 5 5 5 6 6 5 5 3 3 3 4 6 7 7 7 6 6 6 6 5 4
0 0 0 0 0 0 0 0 0 0 0 0 1 2 3 5 6 7 7 5 4 3 3 2 2 3 3 3 3 2 2 2 2 3 3 4 3 3 3 3 3 3 2 1
0 0 0 0 0 0 0 0 0 0 0 1 1 3 4 7 8 7 5 3 2 1 1 1 1 1 1 1 1 0 0 1 1 1 1 1 1 1 1 1 1 1 0 0
0 0 0 0 0 0 0 0 0 0 0 1 2 3 5 7 6 5 3 1 1 1 0 0 0 1 0 0 0 0 0 0 0 0 0 0 0 0 0 0 0 0 0 0
0 0 0 0 0 0 0 0 0 0 0 0 1 3 4 5 4 2 1 1 0 0 0 0 0 0 0 0 0 0 0 0 0 0 0 0 0 0 0 0 0 0 0 0
0 0 0 0 0 0 0 0 0 0 0 0 1 1 3 3 3 2 1 1 0 0 0 0 0 0 0 0 0 0 0 0 0 0 0 0 0 0 0 0 0 0 0 0
0 0 0 0 0 0 0 0 0 0 0 0 0 1 1 2 2 1 1 1 0 0 0 0 0 0 0 0 0 0 0 0 0 0 0 0 0 0 0 0 0 0 0 0
1 1 0 0 0 0 0 0 0 0 0 0 0 1 1 1 1 1 1 0 0 0 0 0 0 0 0 0 0 0 0 0 0 0 0 0 0 0 0 0 0 0 0 0
1 1 1 0 0 0 0 0 0 0 0 1 1 1 1 1 1 1 1 0 0 0 0 0 0 0 0 0 0 0 0 0 0 0 0 0 0 0 0 0 0 0 0 0
0 1 1 0 0 1 1 1 1 1 1 1 1 1 1 1 1 1 0 0 0 0 0 0 0 0 0 0 0 0 0 0 0 0 0 0 0 0 0 0 0 0 0 0
0 0 0 0 0 0 1 1 1 1 1 1 1 1 1 1 1 0 0 0 0 0 0 0 0 0 0 0 0 0 0 0 0 0 0 0 0 0 0 0 0 0 0 0
0 0 0 0 0 0 1 1 1 1 1 1 1 1 1 1 0 0 0 0 0 0 0 0 0 0 0 0 0 0 0 0 0 0 0 0 0 0 0 0 0 0 0 0
0 0 0 0 0 0 0 1 1 1 1 1 1 1 1 1 0 0 0 0 0 0 0 0 0 0 0 0 0 0 0 0 0 0 0 0 0 0 0 0 0 0 0 0
0 0 0 0 0 0 0 0 0 0 1 1 1 1 1 0 0 0 0 0 0 0 0 0 0 0 0 0 0 0 0 0 0 0 0 0 0 0 0 0 0 0 0 0
0 0 0 0 0 0 0 0 0 0 0 0 1 1 1 0 0 0 0 0 0 0 0 0 0 0 0 0 0 0 0 0 0 0 0 0 0 0 0 0 0 0 0 0
0 0 0 0 0 0 0 0 0 0 0 0 1 1 0 0 0 0 0 0 0 0 0 0 0 0 0 0 0 0 0 0 0 0 0 0 0 0 0 0 0 0 0 0
0 0 0 0 0 0 0 0 0 0 0 0 0 0 0 0 0 0 0 0 0 0 0 0 0 0 0 0 0 0 0 0 0 0 0 0 0 0 0 0 0 0 0 0
0 0 0 0 0 0 0 0 0 0 0 0 0 0 0 0 0 0 0 0 0 0 0 0 0 0 0 0 0 0 0 0 0 0 0 0 0 0 0 0 0 0 0 0
0 0 0 0 0 0 0 0 0 0 0 0 0 0 0 0 0 0 0 0 0 0 0 0 0 0 0 0 0 0 0 0 0 0 0 0 0 0 0 0 0 0 0 0
0 0 0 0 0 0 0 0 0 0 0 0 0 0 0 0 0 0 0 0 0 0 0 0 0 0 0 0 0 0 0 0 0 0 0 0 0 0 0 0 0 0 0 0
0 0 0 0 0 0 0 0 0 0 0 0 0 0 0 0 0 0 0 0 0 0 0 0 0 0 0 0 0 0 0 0 0 0 0 0 0 0 0 0 0 0 0 0
Wind_Speed
12 12 13 14 16 17 18 16 13 10 11 13 12 7 2 5 7 7 8 8 8 10 12 10 8 9 9 9 7 5 4 4 3 3 4 4 3 3 3 2 3 4 2 2
13 14 15 14 13 13 15 14 9 4 8 7 8 6 5 8 11 11 12 14 12 11 12 13 12 11 11 10 7 6 5 4 2 1 2 2 3 2 3 3 6 6 5 5
14 10 9 11 11 11 13 13 10 6 7 6 7 7 7 9 13 13 15 17 15 13 13 12 13 13 13 13 11 8 8 6 3 1 2 2 2 2 3 5 6 8 9 9
12 10 10 10 11 12 13 13 11 8 9 9 11 7 9 10 11 12 13 14 12 12 13 12 13 14 14 13 12 12 11 10 7 5 3 3 3 3 5 6 7 10 12 11
10 9 11 12 12 13 12 11 10 10 11 10 13 9 8 10 11 11 13 14 13 12 13 13 13 14 14 13 13 12 12 13 12 10 8 6 6 7 7 8 11 11 10 11
13 11 11 11 11 10 9 11 10 12 12 13 12 9 9 8 11 14 14 14 13 12 13 14 13 14 14 14 13 13 14 14 14 13 13 12 12 11 11 10 10 9 8 9
11 13 11 10 11 11 11 10 8 10 12 13 12 7 6 10 14 16 16 14 13 12 12 13 14 14 14 15 14 14 15 15 15 15 15 15 15 14 13 11 11 10 8 8
7 10 10 11 12 10 13 15 10 6 7 7 5 5 9 16 16 17 16 15 14 13 13 14 13 13 14 14 14 14 15 15 15 15 15 14 14 11 11 12 11 10 8 8
4 8 9 11 12 12 13 14 12 8 8 7 2 8 9 15 17 16 15 14 14 13 13 13 13 13 13 14 14 14 14 15 14 14 14 14 14 13 13 12 10 8 7 7
5 7 8 10 11 13 13 11 6 6 5 6 4 8 9 14 15 15 14 14 13 13 13 13 12 13 13 13 13 14 14 14 14 13 12 12 13 13 12 11 11 10 9 7
4 5 6 7 8 9 9 9 8 6 4 4 4 1 4 15 15 15 14 13 13 13 12 12 12 12 12 12 12 12 13 13 13 13 12 12 11 11 10 10 9 8 7 6
2 3 5 6 5 6 6 6 6 6 5 3 1 3 6 15 16 16 15 14 13 13 12 12 12 12 11 12 11 11 11 11 11 11 11 10 10 9 9 8 7 6 5 5
4 3 3 4 4 4 4 5 7 7 7 4 2 5 9 15 16 15 15 14 12 12 12 11 11 11 10 10 10 10 10 10 10 10 10 9 9 8 8 7 5 5 5 5
1 1 1 2 4 4 5 5 6 8 6 6 7 10 12 14 15 14 13 13 12 12 11 11 10 9 9 9 9 9 8 8 9 9 9 9 8 7 6 5 5 4 4 4
1 0 1 2 3 3 4 6 8 9 10 7 9 10 11 13 14 14 13 13 13 12 11 10 9 8 8 8 8 8 7 7 8 8 9 8 7 6 5 4 4 3 4 5
0 2 3 4 5 2 5 8 10 10 11 11 12 9 10 13 13 13 12 12 12 11 11 10 9 8 7 7 6 6 6 6 6 7 8 7 6 5 5 4 4 4 4 4
2 2 4 3 4 4 6 9 10 11 10 7 7 9 13 13 12 12 13 12 13 12 11 9 8 7 6 5 4 5 6 5 6 6 6 5 5 4 4 4 4 4 3 3
4 5 4 3 1 2 5 6 8 10 12 12 14 13 12 13 11 10 10 12 12 12 11 9 7 7 6 5 3 3 4 5 5 5 5 5 5 4 4 4 3 3 3 2
2 4 4 2 2 7 5 4 5 6 10 11 13 14 14 16 14 9 8 10 11 11 9 8 7 7 5 4 3 3 4 4 4 5 4 5 4 4 4 4 3 3 2 2
2 3 5 3 1 3 6 6 4 5 7 9 12 13 14 12 7 6 9 11 12 11 9 8 7 7 5 4 2 3 4 4 4 4 5 4 4 3 3 4 3 2 2 2
2 3 3 3 2 7 6 3 2 1 5 9 10 10 9 5 7 13 13 12 11 10 9 8 7 6 5 4 3 3 4 4 4 4 4 4 3 1 2 2 2 2 3 2
4 3 2 3 3 6 6 5 6 7 9 10 11 11 12 15 16 15 14 12 11 10 10 9 7 6 5 4 4 4 4 3 4 4 3 2 2 3 3 2 2 2 3 3
5 7 6 7 7 8 9 10 10 11 11 12 13 14 16 17 16 14 13 12 11 10 9 7 7 6 5 4 3 4 3 3 3 3 2 1 2 2 2 3 2 2 3 3
5 4 7 8 9 10 11 11 11 12 13 14 14 15 15 16 15 13 11 10 10 9 8 7 7 7 5 4 5 4 3 2 2 2 0 0 0 1 1 2 3 4 5 5
7 4 6 10 11 10 10 11 13 14 15 15 15 15 15 15 14 13 11 10 9 8 7 7 7 7 6 5 4 4 3 2 1 0 1 1 1 1 2 3 4 5 5 4
4 4 3 7 11 9 12 12 14 14 14 15 15 15 14 14 14 13 11 9 9 9 7 6 6 6 6 5 4 3 2 1 1 1 2 1 1 0 1 3 5 6 5 4
Wind_Direction
225 232 239 237 233 248 272 276 254 227 173 184 190 193 193 78 91 92 100 88 76 78 76 67 62 77 81 77 75 78 86 110 134 158 173 174 168 149 131 109 91 94 93 93
241 235 248 254 252 248 263 271 260 190 149 171 166 150 100 77 78 75 77 74 61 56 65 62 52 49 54 58 62 67 58 70 99 152 163 150 149 138 115 92 74 63 59 54
251 260 260 255 252 248 253 257 251 209 165 182 174 160 142 109 92 82 72 67 61 57 53 54 54 49 46 42 38 43 42 42 36 77 128 122 110 96 84 76 63 52 51 51
257 254 258 250 244 239 243 248 254 233 201 193 198 189 179 149 112 97 86 80 74 65 60 48 48 50 45 40 41 42 41 39 33 38 79 121 117 98 81 79 71 58 50 50
266 252 243 239 240 239 251 250 239 239 231 224 211 196 185 164 140 114 97 86 80 73 71 61 51 52 50 46 44 45 45 42 37 40 52 73 81 83 81 79 74 67 55 50
272 272 255 242 240 237 249 254 238 236 237 233 228 228 179 174 149 121 101 91 83 77 72 69 61 57 53 51 49 48 50 48 44 47 52 63 74 80 82 79 78 72 64 55
263 253 243 242 238 219 229 234 222 220 228 237 215 205 117 114 126 120 111 99 89 80 74 67 62 58 55 53 52 53 55 53 51 54 57 63 69 71 71 73 72 71 64 57
299 269 233 222 234 221 221 236 239 240 242 248 220 133 115 111 112 111 108 104 95 85 79 72 66 63 61 59 58 59 61 61 60 61 63 64 68 71 71 71 74 72 70 65
276 270 240 231 227 234 218 231 244 265 290 284 123 105 115 124 122 117 112 104 95 89 85 80 75 70 68 65 63 64 67 67 66 70 72 71 73 76 77 76 74 74 72 71
188 256 237 219 215 230 245 233 235 245 260 266 221 176 167 151 137 126 116 108 102 96 89 84 80 78 75 74 72 70 71 72 70 70 73 77 75 76 78 79 78 76 71 68
206 249 247 208 210 216 238 242 246 250 230 245 247 234 140 151 138 127 119 114 109 102 96 91 88 85 84 82 81 79 77 77 76 75 75 77 77 77 78 78 77 78 77 76
349 325 286 264 239 257 239 260 263 276 284 259 166 70 93 135 130 125 120 115 108 104 100 95 93 90 86 82 80 80 81 81 81 80 79 79 80 80 80 80 80 80 77 75
9 346 299 269 216 256 256 268 288 290 287 324 59 106 107 116 117 121 120 117 113 109 105 101 95 91 87 86 84 83 82 84 87 88 87 85 84 83 83 83 83 83 81 74
87 4 338 268 290 280 287 298 325 328 328 1 76 120 126 123 122 122 122 121 119 113 109 104 99 96 94 91 90 90 90 92 93 91 89 87 86 84 83 82 80 79 84 81
358 271 200 218 267 285 316 360 19 19 22 49 97 114 131 131 129 128 127 126 122 119 115 111 108 103 100 95 91 90 91 93 97 98 96 94 94 93 90 84 75 62 54 63
75 265 221 201 198 174 60 39 46 46 55 86 98 95 114 118 119 124 128 129 125 121 117 112 108 104 98 93 93 95 94 97 100 100 101 102 102 103 105 98 79 66 54 45
278 245 261 240 156 124 67 38 52 55 44 57 87 113 124 121 126 133 135 132 128 127 123 119 113 104 98 93 94 100 98 100 98 98 102 107 104 96 88 81 69 54 47 43
322 316 302 290 244 87 78 58 72 76 67 77 96 112 117 117 114 115 126 129 130 131 129 126 120 112 106 101 94 101 109 107 106 104 101 101 94 88 81 73 60 48 36 24
335 311 300 317 52 110 111 68 51 80 86 96 110 115 118 118 108 99 117 127 130 131 130 129 125 123 120 116 113 107 102 101 100 95 91 84 73 70 69 64 48 35 13 5
198 266 282 312 5 87 85 59 49 101 101 112 124 133 139 147 130 129 131 127 126 127 129 130 130 129 127 130 137 132 114 106 97 87 79 69 55 49 51 47 25 4 345 349
233 251 299 327 74 85 51 28 352 40 111 124 129 137 143 136 111 130 135 131 130 130 131 134 137 137 141 150 153 121 108 102 96 88 81 71 43 17 70 52 7 342 352 8
324 337 353 349 64 77 16 40 56 90 109 113 113 114 111 108 116 128 132 133 134 135 139 143 141 138 142 150 142 121 107 97 93 88 79 66 27 0 58 39 9 3 349 350
34 28 36 47 75 79 63 79 93 105 107 109 112 115 119 122 127 130 130 133 137 140 142 144 140 133 129 130 119 111 98 88 87 85 68 50 48 23 15 357 8 8 4 9
113 88 108 109 106 100 97 98 100 102 107 112 117 122 124 124 127 128 130 132 134 135 138 142 139 133 127 122 113 114 109 92 81 79 59 229 223 14 47 15 24 39 29 17
107 133 113 111 124 119 111 109 108 109 111 114 118 120 123 126 129 130 130 131 131 132 134 137 130 128 129 132 128 125 114 102 92 60 304 306 10 68 77 78 50 49 63 47
111 115 151 147 152 139 127 121 121 120 119 121 121 122 126 129 129 130 129 130 130 129 132 132 131 130 131 130 124 114 112 98 10 333 335 329 340 75 115 127 111 62 94 114